Location: Chmeln�
(49.6483°N, 14.9871°E)
Time: 05:10:11
(UTC+00:00)

USA 238 - Pass Details

Date: 18 September 2020
Orbit: 1006 x 1206 km, 63.4° (Epoch: 28 October)

Event Time Altitude Azimuth Distance (km) Brightness Sun altitude
Rises 17:41:41 0° 314° (NW) 3,903 7.7 -6.6°
Reaches altitude 10° 17:44:25 10° 320° (NW) 2,974 6.9 -7.0°
Maximum altitude 17:51:18 50° 35° (NE) 1,436 4.3 -8.1°
Enters shadow 17:58:18 11° 109° (ESE) 3,037 5.4 -9.2°
